This is the latest recevied weather packets stored in our database for station/object SQ7IQO. If no packets are shown the sender has not sent any weather packets the latest 10 day(s).
| Time | Temp. | Humidity | Pressure | Rain* | Wind** | Luminosity | Snow |
|---|---|---|---|---|---|---|---|
| 1788099464 | 29.44° C | 39% | 1015.2 hPa | 0 mm | 0 m/s | - | - |
| 1788099404 | 29.44° C | 40% | 1015.2 hPa | 0 mm | 0 m/s | - | - |
| 1788099344 | 29.44° C | 39% | 1015.2 hPa | 0 mm | 0 m/s | - | - |
| 1788099284 | 29.44° C | 39% | 1015.2 hPa | 0 mm | 0.45 m/s, ° | - | - |
| 1788099223 | 29.44° C | 40% | 1015.2 hPa | 0 mm | 0.89 m/s, ° | - | - |
| 1788099163 | 29.44° C | 40% | 1015.2 hPa | 0 mm | 0 m/s | - | - |
| 1788099103 | 28.89° C | 41% | 1015.2 hPa | 0 mm | 0 m/s | - | - |
| 1788099043 | 28.33° C | 40% | 1015.6 hPa | 0 mm | 0 m/s | - | - |
| 1788098984 | 28.89° C | 40% | 1015.2 hPa | 0 mm | 0.89 m/s, ° | - | - |
| 1788098923 | 29.44° C | 40% | 1015.2 hPa | 0 mm | 0.45 m/s, ° | - | - |
| 1788098863 | 29.44° C | 41% | 1015.2 hPa | 0 mm | 0.45 m/s, ° | - | - |
| 1788098803 | 29.44° C | 40% | 1015.2 hPa | 0 mm | 0 m/s | - | - |
| 1788098743 | 29.44° C | 39% | 1015.3 hPa | 0 mm | 0 m/s | - | - |
| 1788098683 | 29.44° C | 40% | 1015.3 hPa | 0 mm | 0.45 m/s, ° | - | - |
| 1788098623 | 29.44° C | 41% | 1022.4 hPa | 0 mm | 0 m/s | - | - |
| 1788098564 | 29.44° C | 40% | 1015.3 hPa | 0 mm | 0 m/s | - | - |
| 1788098504 | 29.44° C | 38% | 1015.3 hPa | 0 mm | 0.89 m/s, ° | - | - |
| 1788098444 | 30° C | 39% | 1015.3 hPa | 0 mm | 0.45 m/s, ° | - | - |
| 1788098384 | 29.44° C | 39% | 1015.3 hPa | 0 mm | 0 m/s | - | - |
| 1788098323 | 29.44° C | 41% | 1015.3 hPa | 0 mm | 0.45 m/s, ° | - | - |
| 1788098263 | 29.44° C | 41% | 1054 hPa | 0 mm | 0 m/s | - | - |
| 1788098203 | 28.89° C | 40% | 1015.4 hPa | 0 mm | 0 m/s | - | - |
| 1788098143 | 28.33° C | 41% | 1015.4 hPa | 0 mm | 0 m/s | - | - |
| 1788098083 | 28.33° C | 40% | 1015.4 hPa | 0 mm | 0.45 m/s, ° | - | - |
| 1788098023 | 28.33° C | 40% | 1015.4 hPa | 0 mm | 0.89 m/s, ° | - | - |
* Rain latest hour (hover to see other rain measurements)
** Current wind speed in m/s (hover to see current wind gust speed)